TIME,DELAY(SENSOR),PRES,OXYGEN,RAWTEMP,T(OPTODE),TCPHASE,FLUOR,BETA(BETA700),BETA(BETA412),BETA(BETA440),CDOM,C(CSC),ED(ED411.90),ED(ED443.80),ED(ED489.40),ED(ED554.70),LU(LU412.20),LU(LU443.80),LU(LU489.40),LU(LU555.00),COMP,TILTX,TILTY,CHECK
1341268176,5804,863.0700073242188000,180.4618072509765600,482.1895141601562500,8.4366092681884770,39.4238395690918000,52,110,102,80,76,15451,2147442889,2147791817,2147582244,2147823908,2147305938,2147452973,2147762825,2148276196,288,6,14,3482
1341271772,5803,5.5000000000000000,222.1123962402343800,537.6470947265625000,6.6966948509216310,37.8407402038574200,52,108,103,79,75,15451,2147432292,2147797942,2147585846,2147832082,2147306020,2147448960,2147770148,2148282614,131,6,15,13838
1341275372,5804,865.0000000000000000,232.9167022705078000,546.4251098632812000,6.4192490577697750,37.4150886535644500,51,108,104,81,76,15447,2147429165,2147797147,2147587465,2147834066,2147310665,2147448210,2147771090,2148282660,1832,6,15,16397
1341278972,5805,919.0000000000000000,233.3854980468750000,545.1959838867188000,6.4581341743469240,37.3686485290527340,52,111,103,80,77,15442,2147426468,2147800576,2147587474,2147831808,2147307520,2147443830,2147764416,2148282313,3,6,14,48055
1341282572,5804,959.0000000000000000,233.7733001708984400,546.5191040039062000,6.4162750244140625,37.3715591430664060,50,111,104,79,76,15441,2147429750,2147801142,2147585252,2147833572,2147306258,2147452681,2147767433,2148282221,2434,6,15,42865
1341286172,5804,4.0000000000000000,234.7637939453125000,547.6898193359375000,6.3792271614074710,37.3413887023925800,51,110,103,78,76,15440,2147430985,2147799104,2147590555,2147833216,2147303387,2147447954,2147772827,2148281334,3297,6,15,57752
1341289772,5805,1007.0000000000000000,234.5334014892578000,548.2341918945312000,6.3619937896728520,37.3633613586425800,51,107,103,77,76,15438,2147432804,2147799862,2147587574,2147836498,2147302217,2147445732,2147770322,2148282624,101,6,15,10627
1341293372,5805,10.3999996185302730,233.8365020751953000,548.9810791015625000,6.3383460044860840,37.4133186340332000,52,113,104,80,76,15435,2147431588,2147798683,2147587072,2147831369,2147305051,2147445467,2147772480,2148277458,207,6,15,20037
1341296972,5806,1027.0000000000000000,235.4423065185547000,549.6475219726562000,6.3172488212585450,37.3416595458984400,51,104,103,79,75,15432,2147429412,2147797065,2147587648,2147833289,2147304448,2147442404,2147767817,2148281837,51,6,15,28259
1341300572,5804,983.0000000000000000,235.1669006347656200,550.8994140625000000,6.2775969505310060,37.3782005310058600,51,107,104,78,75,15436,2147430217,2147797458,2147590372,2147834258,2147304557,2147445494,2147769069,2148281270,3240,6,15,31907
1341304172,5803,965.0000000000000000,236.7926025390625000,551.6403198242188000,6.2541260719299320,37.3076591491699200,50,107,103,78,76,15433,2147427501,2147797860,2147588196,2147834980,2147306834,2147444397,2147770797,2148284845,3143,6,15,40280
1341307772,5806,10.6000003814697270,238.8659973144531200,552.3967285156250000,6.2301602363586430,37.2141685485839840,52,122,104,78,76,15431,2147426633,2147798153,2147590409,2147835035,2147310006,2147446646,2147770203,2148285485,69,6,14,38108
1341311372,5804,1010.0000000000000000,236.6739044189453000,551.7460937500000000,6.2507739067077640,37.3152313232421900,51,105,103,79,77,15430,2147426212,2147801837,2147588333,2147838061,2147304064,2147443693,2147771940,2148283556,3388,6,15,60160
1341314972,5802,10.1000003814697270,237.1604003906250000,552.5343017578125000,6.2257981300354000,37.3041191101074200,51,106,104,80,76,15429,2147432329,2147800731,2147588269,2147833097,2147303469,2147444809,2147773997,2148282505,3578,6,15,9744
1341318572,5806,1041.0000000000000000,237.5885925292968800,552.6000976562500000,6.2237129211425780,37.2832183837890600,51,108,104,79,76,15426,2147429248,2147798729,2147588598,2147834496,2147304173,2147443328,2147768905,2148282102,3497,6,15,62089
1341322172,5804,10.1999998092651370,237.0740051269531200,552.2100830078125000,6.2360711097717285,37.3029708862304700,51,111,104,78,75,15428,2147427456,2147799689,2147589248,2147832841,2147306084,2147444443,2147770788,2148280045,362,6,15,55586
1341325772,5802,1016.0000000000000000,236.5516967773437500,550.0927734375000000,6.3031458854675290,37.2917098999023440,51,108,104,79,77,15423,2147429513,2147799936,2147585481,2147832475,2147306541,2147443849,2147770477,2148282102,2870,6,15,22011
1341329372,5803,10.0000000000000000,235.8708953857422000,551.4901123046875000,6.2588839530944820,37.3523292541503900,52,116,103,79,76,15426,2147428598,2147800905,2147591250,2147834889,2147307821,2147448813,2147770432,2148285001,268,6,15,45788
1341332972,5801,11.8999996185302730,236.7351989746093800,551.7456054687500000,6.2507901191711430,37.3120994567871100,51,107,103,79,76,15427,2147429979,2147796809,2147588726,2147831561,2147307026,2147446774,2147769883,2148286299,181,6,15,18061
1341336572,5805,1069.0000000000000000,237.7803955078125000,551.8328247070312000,6.2480278015136720,37.2601814270019500,51,106,103,78,76,15422,2147427904,2147795766,2147585901,2147832411,2147303186,2147447277,2147772562,2148282788,3259,6,14,32407
1341340172,5805,10.3999996185302730,238.4579010009765600,552.1497802734375000,6.2379817962646480,37.2304496765136700,51,107,106,79,76,15400,2147429165,2147797504,2147589842,2147833051,2147307748,2147445796,2147770660,2148285915,3563,6,15,25721
1341343772,5805,53.0000000000000000,238.3562011718750000,553.1408081054688000,6.2065768241882320,37.2540397644043000,50,108,103,79,76,15415,2147429193,2147797394,2147588553,2147830107,2147306221,2147448054,2147768438,2148281472,3053,6,15,48835
1341347372,5806,1068.0000000000000000,240.3840942382812500,553.5355834960938000,6.1940631866455080,37.1568794250488300,51,107,103,77,76,15418,2147427602,2147803346,2147589074,2147833737,2147304566,2147446162,2147769225,2148280914,353,6,15,51391
1341350972,5804,10.1999998092651370,240.1110992431640600,554.0355834960938000,6.1782131195068360,37.1799888610839840,52,109,102,79,76,15420,2147428269,2147796864,2147588544,2147833892,2147307684,2147445961,2147767780,2148281883,3240,6,15,46691
1341354572,5800,99.0000000000000000,240.6884002685547000,556.3228759765625000,6.1056799888610840,37.1923408508300800,51,110,103,79,75,15416,2147428873,2147799488,2147588763,2147834898,2147310829,2147446491,2147772278,2148283501,863,6,15,7291
1341358172,5802,10.0000000000000000,241.9367980957031200,555.6536865234375000,6.1269049644470215,37.1165885925293000,51,105,103,79,76,15416,2147432292,2147799323,2147589330,2147834093,2147306660,2147443986,2147769956,2148287030,1331,6,15,14775
1341361772,5804,11.6999998092651370,241.1138000488281200,553.9774169921875000,6.1800589561462400,37.1283607482910160,52,107,104,78,76,15415,2147427840,2147801947,2147588726,2147833344,2147308379,2147445952,2147770870,2148281115,3191,6,14,55812
1341365372,5804,119.0000000000000000,237.7942047119140600,552.4276733398438000,6.2291760444641110,37.2699012756347660,51,109,104,78,76,15406,2147429897,2147797549,2147590070,2147831497,2147305618,2147442669,2147770304,2148282340,3539,6,14,54140
1341368972,5804,11.1000003814697270,238.3327026367187500,552.3121948242188000,6.2328381538391110,37.2397117614746100,52,133,103,81,76,14053,2147426651,2147801938,2147586980,2147832896,2147307986,2147448054,2147772214,2148280576,175,6,15,26656
1341372572,5806,11.6999998092651370,236.9420928955078000,552.3239135742188000,6.2324662208557130,37.3117980957031250,51,108,104,79,76,14050,2147432073,2147796845,2147588251,2147831689,2147310390,2147446966,2147768877,2148283081,94,6,15,23327
1341376172,5808,1146.0000000000000000,237.1278076171875000,552.6243286132812000,6.2229480743408200,37.3078804016113300,50,106,102,78,77,14046,2147432987,2147801234,2147586980,2147833069,2147305554,2147446921,2147770203,2148281307,39,6,14,25623
1341379772,5802,15.0000000000000000,236.3166961669922000,553.3093872070312000,6.2012310028076170,37.3623695373535160,51,107,103,79,77,14052,2147428726,2147801810,2147591890,2147831670,2147303862,2147450395,2147771008,2148282569,3330,6,15,19229
1341383372,5803,1004.0000000000000000,237.3273010253906200,553.6812133789062000,6.1894488334655760,37.3171005249023440,51,108,104,78,76,13932,2147431259,2147800393,2147589129,2147837275,2147303926,2147443812,2147768155,2148283099,3502,6,15,14738
1341386972,5803,1039.0000000000000000,239.7503967285156200,555.6370239257812000,6.1274361610412600,37.2278709411621100,51,105,103,79,76,13938,2147427849,2147799204,2147590171,2147835949,2147305453,2147444480,2147770660,2148280374,2748,6,15,33932
1341390572,5806,1095.0000000000000000,240.7386016845703000,555.9729003906250000,6.1167831420898440,37.1831512451171900,51,107,103,78,76,13932,2147430354,2147801645,2147588900,2147832320,2147304713,2147444306,2147770203,2148281060,32,6,14,60582
1341394172,5804,1105.0000000000000000,242.0301055908203000,554.8975830078125000,6.1508831977844240,37.0981903076171900,52,108,103,78,74,13942,2147429376,2147797312,2147589037,2147833709,2147307721,2147445449,2147775616,2148282102,2685,6,15,10560
1341397772,5804,11.6999998092651370,239.9438018798828000,553.9808959960938000,6.1799488067626950,37.1879501342773440,51,106,104,78,77,13932,2147425417,2147798610,2147593261,2147836909,2147308726,2147445805,2147773330,2148281161,3387,6,15,7204
1341401372,5805,1096.0000000000000000,239.2254943847656200,554.0479736328125000,6.1778202056884770,37.2255516052246100,51,108,102,78,77,13924,2147430838,2147800612,2147589741,2147833810,2147305755,2147443821,2147771154,2148279506,212,6,15,12060
1341404972,5806,1076.0000000000000000,238.7501068115234400,552.7614746093750000,6.2185988426208500,37.2265815734863300,51,105,103,78,76,13928,2147433389,2147801453,2147589714,2147834294,2147307355,2147447168,2147768704,2148285522,3091,6,15,62417
1341408572,5802,66.0000000000000000,237.5612030029297000,552.7277832031250000,6.2196660041809080,37.2872200012207000,50,108,104,78,76,13927,2147431250,2147801545,2147587328,2147833956,2147308672,2147446464,2147768704,2148282642,2848,6,15,64206
1341410756,5803,11.1999998092651370,238.5935974121093800,552.9133911132812000,6.2137851715087890,37.2377586364746100,51,107,102,78,76,13925,2147430857,2147802185,2147593289,2147833892,2147307867,2147445632,2147769014,2148281481,3093,6,15,37136
